owner,sensor,date,latitude,longitude,vertical_datum,sea_water_practical_salinity,qcFlag 
DISL,ioos:station:DISL:PPTA:1,2013-01-01T00:00:00Z,30.2791,-87.5561,0.4,99.0,11144222 
DISL,ioos:station:DISL:PPTA:1,2013-01-01T00:30:00Z,30.2791,-87.5561,0.4,99.0,11144222 
DISL,ioos:station:DISL:PPTA:1,2013-01-01T01:00:00Z,30.2791,-87.5561,0.4,99.0,11144222 
DISL,ioos:station:DISL:PPTA:1,2013-01-01T01:30:00Z,30.2791,-87.5561,0.4,99.0,11144222 
DISL,ioos:station:DISL:PPTA:1,2013-01-01T02:00:00Z,30.2791,-87.5561,0.4,99.0,11144222 
DISL,ioos:station:DISL:PPTA:1,2013-01-01T02:30:00Z,30.2791,-87.5561,0.4,99.0,11144222 
DISL,ioos:station:DISL:PPTA:1,2013-01-01T03:00:00Z,30.2791,-87.5561,0.4,99.0,11144222 
DISL,ioos:station:DISL:PPTA:1,2013-01-01T03:30:00Z,30.2791,-87.5561,0.4,99.0,11144222 
DISL,ioos:station:DISL:PPTA:1,2013-01-01T04:00:00Z,30.2791,-87.5561,0.4,99.0,11144222 
DISL,ioos:station:DISL:PPTA:1,2013-01-01T04:30:00Z,30.2791,-87.5561,0.4,99.0,11144222 
DISL,ioos:station:DISL:PPTA:1,2013-01-01T05:00:00Z,30.2791,-87.5561,0.4,99.0,11144222 
DISL,ioos:station:DISL:PPTA:1,2013-01-01T05:30:00Z,30.2791,-87.5561,0.4,99.0,11144222 
DISL,ioos:station:DISL:PPTA:1,2013-01-01T06:00:00Z,30.2791,-87.5561,0.4,99.0,11144222 
DISL,ioos:station:DISL:PPTA:1,2013-01-01T06:30:00Z,30.2791,-87.5561,1.288,33.26,1111122 
DISL,ioos:station:DISL:PPTA:1,2013-01-01T07:00:00Z,30.2791,-87.5561,1.263,33.19,1111122 
DISL,ioos:station:DISL:PPTA:1,2013-01-01T07:30:00Z,30.2791,-87.5561,1.255,33.21,1111122 
DISL,ioos:station:DISL:PPTA:1,2013-01-01T08:00:00Z,30.2791,-87.5561,1.247,33.2,1111122 
DISL,ioos:station:DISL:PPTA:1,2013-01-01T08:30:00Z,30.2791,-87.5561,1.245,33.11,1111122 
DISL,ioos:station:DISL:PPTA:1,2013-01-01T09:00:00Z,30.2791,-87.5561,1.219,33.01,1111122 
DISL,ioos:station:DISL:PPTA:1,2013-01-01T09:30:00Z,30.2791,-87.5561,1.194,32.89,1111122 
DISL,ioos:station:DISL:PPTA:1,2013-01-01T10:00:00Z,30.2791,-87.5561,1.192,32.78,1111122 
DISL,ioos:station:DISL:PPTA:1,2013-01-01T10:30:00Z,30.2791,-87.5561,1.174,32.8,1111122 
DISL,ioos:station:DISL:PPTA:1,2013-01-01T11:00:00Z,30.2791,-87.5561,1.172,32.79,1111122 
DISL,ioos:station:DISL:PPTA:1,2013-01-01T11:30:00Z,30.2791,-87.5561,1.147,32.9,1111122 
DISL,ioos:station:DISL:PPTA:1,2013-01-01T12:00:00Z,30.2791,-87.5561,1.163,32.7,1111122 
DISL,ioos:station:DISL:PPTA:1,2013-01-01T12:30:00Z,30.2791,-87.5561,1.155,32.76,1111122 
DISL,ioos:station:DISL:PPTA:1,2013-01-01T13:00:00Z,30.2791,-87.5561,1.157,32.64,1111122 
DISL,ioos:station:DISL:PPTA:1,2013-01-01T13:30:00Z,30.2791,-87.5561,1.169,32.25,1111122 
DISL,ioos:station:DISL:PPTA:1,2013-01-01T14:00:00Z,30.2791,-87.5561,1.145,32.05,1111122 
DISL,ioos:station:DISL:PPTA:1,2013-01-01T14:30:00Z,30.2791,-87.5561,1.144,31.72,1111122 
DISL,ioos:station:DISL:PPTA:1,2013-01-01T15:00:00Z,30.2791,-87.5561,1.134,31.05,1111122 
DISL,ioos:station:DISL:PPTA:1,2013-01-01T15:30:00Z,30.2791,-87.5561,1.132,30.92,1111122 
DISL,ioos:station:DISL:PPTA:1,2013-01-01T16:00:00Z,30.2791,-87.5561,1.149,30.19,1111122 
DISL,ioos:station:DISL:PPTA:1,2013-01-01T16:30:00Z,30.2791,-87.5561,1.141,29.34,1111122 
DISL,ioos:station:DISL:PPTA:1,2013-01-01T17:00:00Z,30.2791,-87.5561,1.143,30.39,1111122 
DISL,ioos:station:DISL:PPTA:1,2013-01-01T17:30:00Z,30.2791,-87.5561,1.15,29.53,1111122 
DISL,ioos:station:DISL:PPTA:1,2013-01-01T18:00:00Z,30.2791,-87.5561,1.148,31.72,1111122 
DISL,ioos:station:DISL:PPTA:1,2013-01-01T18:30:00Z,30.2791,-87.5561,1.156,30.66,1111122 
DISL,ioos:station:DISL:PPTA:1,2013-01-01T19:00:00Z,30.2791,-87.5561,1.149,31.04,1111122 
DISL,ioos:station:DISL:PPTA:1,2013-01-01T19:30:00Z,30.2791,-87.5561,1.196,31.78,1111122 
DISL,ioos:station:DISL:PPTA:1,2013-01-01T20:00:00Z,30.2791,-87.5561,1.176,31.57,1111122 
DISL,ioos:station:DISL:PPTA:1,2013-01-01T20:30:00Z,30.2791,-87.5561,1.158,32.03,1111122 
DISL,ioos:station:DISL:PPTA:1,2013-01-01T21:00:00Z,30.2791,-87.5561,1.184,31.62,1111122 
DISL,ioos:station:DISL:PPTA:1,2013-01-01T21:30:00Z,30.2791,-87.5561,1.189,31.9,1111122 
DISL,ioos:station:DISL:PPTA:1,2013-01-01T22:00:00Z,30.2791,-87.5561,1.189,31.9,1111122 
DISL,ioos:station:DISL:PPTA:1,2013-01-01T22:30:00Z,30.2791,-87.5561,1.194,31.89,1111122 
DISL,ioos:station:DISL:PPTA:1,2013-01-01T23:00:00Z,30.2791,-87.5561,1.197,32.04,1111122 
DISL,ioos:station:DISL:PPTA:1,2013-01-01T23:30:00Z,30.2791,-87.5561,1.198,32.03,1111122 
DISL,ioos:station:DISL:PPTA:1,2013-01-02T00:00:00Z,30.2791,-87.5561,1.223,31.95,1111122 
DISL,ioos:station:DISL:PPTA:1,2013-01-02T00:30:00Z,30.2791,-87.5561,1.252,32.12,1111122 
DISL,ioos:station:DISL:PPTA:1,2013-01-02T01:00:00Z,30.2791,-87.5561,1.238,32.15,1111122 
DISL,ioos:station:DISL:PPTA:1,2013-01-02T01:30:00Z,30.2791,-87.5561,1.256,32.08,1111122 
DISL,ioos:station:DISL:PPTA:1,2013-01-02T02:00:00Z,30.2791,-87.5561,1.27,32.09,1111122 
DISL,ioos:station:DISL:PPTA:1,2013-01-02T02:30:00Z,30.2791,-87.5561,1.276,32.14,1111122 
DISL,ioos:station:DISL:PPTA:1,2013-01-02T03:00:00Z,30.2791,-87.5561,1.303,32.1,1111122 
DISL,ioos:station:DISL:PPTA:1,2013-01-02T03:30:00Z,30.2791,-87.5561,1.295,32.18,1111122 
DISL,ioos:station:DISL:PPTA:1,2013-01-02T04:00:00Z,30.2791,-87.5561,1.306,32.1,1111122 
DISL,ioos:station:DISL:PPTA:1,2013-01-02T04:30:00Z,30.2791,-87.5561,1.298,32.15,1111122 
DISL,ioos:station:DISL:PPTA:1,2013-01-02T05:00:00Z,30.2791,-87.5561,1.273,31.98,1111122 
DISL,ioos:station:DISL:PPTA:1,2013-01-02T05:30:00Z,30.2791,-87.5561,1.277,31.94,1111122 
DISL,ioos:station:DISL:PPTA:1,2013-01-02T06:00:00Z,30.2791,-87.5561,1.271,31.86,1111122 
DISL,ioos:station:DISL:PPTA:1,2013-01-02T06:30:00Z,30.2791,-87.5561,1.252,31.74,1111122 
DISL,ioos:station:DISL:PPTA:1,2013-01-02T07:00:00Z,30.2791,-87.5561,1.255,32.03,1111122 
DISL,ioos:station:DISL:PPTA:1,2013-01-02T07:30:00Z,30.2791,-87.5561,1.253,31.56,1111122 
DISL,ioos:station:DISL:PPTA:1,2013-01-02T08:00:00Z,30.2791,-87.5561,1.259,31.48,1111122 
DISL,ioos:station:DISL:PPTA:1,2013-01-02T08:30:00Z,30.2791,-87.5561,1.258,31.57,1111122 
DISL,ioos:station:DISL:PPTA:1,2013-01-02T09:00:00Z,30.2791,-87.5561,1.216,31.24,1111122 
DISL,ioos:station:DISL:PPTA:1,2013-01-02T09:30:00Z,30.2791,-87.5561,1.205,31.51,1111122 
DISL,ioos:station:DISL:PPTA:1,2013-01-02T10:00:00Z,30.2791,-87.5561,1.173,31.59,1111122 
DISL,ioos:station:DISL:PPTA:1,2013-01-02T10:30:00Z,30.2791,-87.5561,1.135,31.76,1111122 
DISL,ioos:station:DISL:PPTA:1,2013-01-02T11:00:00Z,30.2791,-87.5561,1.122,31.3,1111122 
DISL,ioos:station:DISL:PPTA:1,2013-01-02T11:30:00Z,30.2791,-87.5561,1.12,30.57,1111122 
DISL,ioos:station:DISL:PPTA:1,2013-01-02T12:00:00Z,30.2791,-87.5561,1.117,29.71,1111122 
DISL,ioos:station:DISL:PPTA:1,2013-01-02T12:30:00Z,30.2791,-87.5561,1.12,29.53,1111122 
DISL,ioos:station:DISL:PPTA:1,2013-01-02T13:00:00Z,30.2791,-87.5561,1.105,29.18,1111122 
DISL,ioos:station:DISL:PPTA:1,2013-01-02T13:30:00Z,30.2791,-87.5561,1.07,29.63,1111122 
DISL,ioos:station:DISL:PPTA:1,2013-01-02T14:00:00Z,30.2791,-87.5561,1.111,29.32,1111122 
DISL,ioos:station:DISL:PPTA:1,2013-01-02T14:30:00Z,30.2791,-87.5561,1.101,29.3,1111122 
DISL,ioos:station:DISL:PPTA:1,2013-01-02T15:00:00Z,30.2791,-87.5561,1.091,29.45,1111122 
DISL,ioos:station:DISL:PPTA:1,2013-01-02T15:30:00Z,30.2791,-87.5561,1.096,27.8,1111122 
DISL,ioos:station:DISL:PPTA:1,2013-01-02T16:00:00Z,30.2791,-87.5561,1.107,28.71,1111122 
DISL,ioos:station:DISL:PPTA:1,2013-01-02T16:30:00Z,30.2791,-87.5561,1.069,27.2,1111122 
DISL,ioos:station:DISL:PPTA:1,2013-01-02T17:00:00Z,30.2791,-87.5561,1.099,26.91,1111122 
DISL,ioos:station:DISL:PPTA:1,2013-01-02T17:30:00Z,30.2791,-87.5561,1.096,26.3,1111122 
DISL,ioos:station:DISL:PPTA:1,2013-01-02T18:00:00Z,30.2791,-87.5561,1.099,27.18,1111122 
DISL,ioos:station:DISL:PPTA:1,2013-01-02T18:30:00Z,30.2791,-87.5561,1.128,26.33,1111122 
DISL,ioos:station:DISL:PPTA:1,2013-01-02T19:00:00Z,30.2791,-87.5561,1.115,25.43,1111122 
DISL,ioos:station:DISL:PPTA:1,2013-01-02T19:30:00Z,30.2791,-87.5561,1.128,28.71,1111122 
DISL,ioos:station:DISL:PPTA:1,2013-01-02T20:00:00Z,30.2791,-87.5561,1.125,28.37,1111122 
DISL,ioos:station:DISL:PPTA:1,2013-01-02T20:30:00Z,30.2791,-87.5561,1.128,31.03,1111122 
DISL,ioos:station:DISL:PPTA:1,2013-01-02T21:00:00Z,30.2791,-87.5561,1.13,32.17,1111122 
DISL,ioos:station:DISL:PPTA:1,2013-01-02T21:30:00Z,30.2791,-87.5561,1.124,32.12,1111122 
DISL,ioos:station:DISL:PPTA:1,2013-01-02T22:00:00Z,30.2791,-87.5561,1.125,32.79,1111122 
DISL,ioos:station:DISL:PPTA:1,2013-01-02T22:30:00Z,30.2791,-87.5561,1.139,31.91,1111122 
DISL,ioos:station:DISL:PPTA:1,2013-01-02T23:00:00Z,30.2791,-87.5561,1.141,32.99,1111122 
DISL,ioos:station:DISL:PPTA:1,2013-01-02T23:30:00Z,30.2791,-87.5561,1.106,33.22,1111122 
DISL,ioos:station:DISL:PPTA:1,2013-01-03T00:00:00Z,30.2791,-87.5561,1.134,33.03,1111122 
DISL,ioos:station:DISL:PPTA:1,2013-01-03T00:30:00Z,30.2791,-87.5561,1.096,33.26,1111122 
DISL,ioos:station:DISL:PPTA:1,2013-01-03T01:00:00Z,30.2791,-87.5561,1.135,31.83,1111122 
DISL,ioos:station:DISL:PPTA:1,2013-01-03T01:30:00Z,30.2791,-87.5561,1.179,33.04,1111122 
DISL,ioos:station:DISL:PPTA:1,2013-01-03T02:00:00Z,30.2791,-87.5561,1.145,29.82,1111122 
DISL,ioos:station:DISL:PPTA:1,2013-01-03T02:30:00Z,30.2791,-87.5561,1.195,29.81,1111122 
DISL,ioos:station:DISL:PPTA:1,2013-01-03T03:00:00Z,30.2791,-87.5561,1.173,32.95,1111122 
DISL,ioos:station:DISL:PPTA:1,2013-01-03T03:30:00Z,30.2791,-87.5561,1.205,30.97,1111122 
DISL,ioos:station:DISL:PPTA:1,2013-01-03T04:00:00Z,30.2791,-87.5561,1.209,32.87,1111122 
DISL,ioos:station:DISL:PPTA:1,2013-01-03T04:30:00Z,30.2791,-87.5561,1.157,32.21,1111122 
DISL,ioos:station:DISL:PPTA:1,2013-01-03T05:00:00Z,30.2791,-87.5561,1.161,32.9,1111122 
DISL,ioos:station:DISL:PPTA:1,2013-01-03T05:30:00Z,30.2791,-87.5561,1.138,32.06,1111122 
DISL,ioos:station:DISL:PPTA:1,2013-01-03T06:00:00Z,30.2791,-87.5561,1.211,29.72,1111122 
DISL,ioos:station:DISL:PPTA:1,2013-01-03T06:30:00Z,30.2791,-87.5561,1.192,29.18,1111122 
DISL,ioos:station:DISL:PPTA:1,2013-01-03T07:00:00Z,30.2791,-87.5561,1.132,29.63,1111122 
DISL,ioos:station:DISL:PPTA:1,2013-01-03T07:30:00Z,30.2791,-87.5561,1.119,29.48,1111122 
DISL,ioos:station:DISL:PPTA:1,2013-01-03T08:00:00Z,30.2791,-87.5561,1.122,30.51,1111122 
DISL,ioos:station:DISL:PPTA:1,2013-01-03T08:30:00Z,30.2791,-87.5561,1.139,29.81,1111122 
DISL,ioos:station:DISL:PPTA:1,2013-01-03T09:00:00Z,30.2791,-87.5561,1.136,28.98,1111122 
DISL,ioos:station:DISL:PPTA:1,2013-01-03T09:30:00Z,30.2791,-87.5561,1.109,29.47,1111122 
DISL,ioos:station:DISL:PPTA:1,2013-01-03T10:00:00Z,30.2791,-87.5561,1.143,28.95,1111122 
DISL,ioos:station:DISL:PPTA:1,2013-01-03T10:30:00Z,30.2791,-87.5561,1.121,28.72,1111122 
DISL,ioos:station:DISL:PPTA:1,2013-01-03T11:00:00Z,30.2791,-87.5561,1.092,29.35,1111122 
DISL,ioos:station:DISL:PPTA:1,2013-01-03T11:30:00Z,30.2791,-87.5561,1.096,28.68,1111122 
DISL,ioos:station:DISL:PPTA:1,2013-01-03T12:00:00Z,30.2791,-87.5561,1.074,29.61,1111122 
DISL,ioos:station:DISL:PPTA:1,2013-01-03T12:30:00Z,30.2791,-87.5561,1.053,28.06,1111122 
DISL,ioos:station:DISL:PPTA:1,2013-01-03T13:00:00Z,30.2791,-87.5561,1.065,28.67,1111122 
DISL,ioos:station:DISL:PPTA:1,2013-01-03T13:30:00Z,30.2791,-87.5561,1.09,26.62,1111122 
DISL,ioos:station:DISL:PPTA:1,2013-01-03T14:00:00Z,30.2791,-87.5561,1.108,27.62,1111122 
DISL,ioos:station:DISL:PPTA:1,2013-01-03T14:30:00Z,30.2791,-87.5561,1.132,26.2,1111122 
DISL,ioos:station:DISL:PPTA:1,2013-01-03T15:00:00Z,30.2791,-87.5561,1.079,27.04,1111122 
DISL,ioos:station:DISL:PPTA:1,2013-01-03T15:30:00Z,30.2791,-87.5561,1.072,26.25,1111122 
DISL,ioos:station:DISL:PPTA:1,2013-01-03T16:00:00Z,30.2791,-87.5561,1.092,26.75,1111122 
DISL,ioos:station:DISL:PPTA:1,2013-01-03T16:30:00Z,30.2791,-87.5561,1.103,25.33,1111122 
DISL,ioos:station:DISL:PPTA:1,2013-01-03T17:00:00Z,30.2791,-87.5561,1.104,26.02,1111122 
DISL,ioos:station:DISL:PPTA:1,2013-01-03T17:30:00Z,30.2791,-87.5561,1.159,25.17,1111122 
DISL,ioos:station:DISL:PPTA:1,2013-01-03T18:00:00Z,30.2791,-87.5561,1.099,25.21,1111122 
DISL,ioos:station:DISL:PPTA:1,2013-01-03T18:30:00Z,30.2791,-87.5561,1.107,25.66,1111122 
DISL,ioos:station:DISL:PPTA:1,2013-01-03T19:00:00Z,30.2791,-87.5561,1.152,26.77,1111122 
DISL,ioos:station:DISL:PPTA:1,2013-01-03T19:30:00Z,30.2791,-87.5561,1.065,25.77,1111122 
DISL,ioos:station:DISL:PPTA:1,2013-01-03T20:00:00Z,30.2791,-87.5561,1.117,31.23,1111122 
DISL,ioos:station:DISL:PPTA:1,2013-01-03T20:30:00Z,30.2791,-87.5561,1.099,32.25,1111122 
DISL,ioos:station:DISL:PPTA:1,2013-01-03T21:00:00Z,30.2791,-87.5561,1.089,30.08,1111122 
DISL,ioos:station:DISL:PPTA:1,2013-01-03T21:30:00Z,30.2791,-87.5561,1.062,33.08,1111122 
DISL,ioos:station:DISL:PPTA:1,2013-01-03T22:00:00Z,30.2791,-87.5561,1.096,32.38,1111122 
DISL,ioos:station:DISL:PPTA:1,2013-01-03T22:30:00Z,30.2791,-87.5561,1.07,33.51,1111122 
DISL,ioos:station:DISL:PPTA:1,2013-01-03T23:00:00Z,30.2791,-87.5561,1.062,31.41,1111122 
DISL,ioos:station:DISL:PPTA:1,2013-01-03T23:30:00Z,30.2791,-87.5561,1.088,33.17,1111122 
DISL,ioos:station:DISL:PPTA:1,2013-01-04T00:00:00Z,30.2791,-87.5561,1.123,33.07,1111122 
DISL,ioos:station:DISL:PPTA:1,2013-01-04T00:30:00Z,30.2791,-87.5561,1.097,32.42,1111122 
DISL,ioos:station:DISL:PPTA:1,2013-01-04T01:00:00Z,30.2791,-87.5561,1.132,33.29,1111122 
DISL,ioos:station:DISL:PPTA:1,2013-01-04T01:30:00Z,30.2791,-87.5561,1.103,33.39,1111122 
DISL,ioos:station:DISL:PPTA:1,2013-01-04T02:00:00Z,30.2791,-87.5561,1.07,32.97,1111122 
DISL,ioos:station:DISL:PPTA:1,2013-01-04T02:30:00Z,30.2791,-87.5561,1.141,31.49,1111122 
DISL,ioos:station:DISL:PPTA:1,2013-01-04T03:00:00Z,30.2791,-87.5561,1.151,26.97,1111122 
DISL,ioos:station:DISL:PPTA:1,2013-01-04T03:30:00Z,30.2791,-87.5561,1.168,27.25,1111122 
DISL,ioos:station:DISL:PPTA:1,2013-01-04T04:00:00Z,30.2791,-87.5561,1.206,26.6,1111122 
DISL,ioos:station:DISL:PPTA:1,2013-01-04T04:30:00Z,30.2791,-87.5561,1.204,26.9,1111122 
DISL,ioos:station:DISL:PPTA:1,2013-01-04T05:00:00Z,30.2791,-87.5561,1.21,27.14,1111122 
DISL,ioos:station:DISL:PPTA:1,2013-01-04T05:30:00Z,30.2791,-87.5561,1.215,26.66,1111122 
DISL,ioos:station:DISL:PPTA:1,2013-01-04T06:00:00Z,30.2791,-87.5561,1.197,28.04,1111122 
DISL,ioos:station:DISL:PPTA:1,2013-01-04T06:30:00Z,30.2791,-87.5561,1.183,29.02,1111122 
DISL,ioos:station:DISL:PPTA:1,2013-01-04T07:00:00Z,30.2791,-87.5561,1.195,26.95,1111122 
DISL,ioos:station:DISL:PPTA:1,2013-01-04T07:30:00Z,30.2791,-87.5561,1.179,29.13,1111122 
DISL,ioos:station:DISL:PPTA:1,2013-01-04T08:00:00Z,30.2791,-87.5561,1.194,26.17,1111122 
DISL,ioos:station:DISL:PPTA:1,2013-01-04T08:30:00Z,30.2791,-87.5561,1.179,26.77,1111122 
DISL,ioos:station:DISL:PPTA:1,2013-01-04T09:00:00Z,30.2791,-87.5561,1.183,26.17,1111122 
DISL,ioos:station:DISL:PPTA:1,2013-01-04T09:30:00Z,30.2791,-87.5561,1.159,26.32,1111122 
DISL,ioos:station:DISL:PPTA:1,2013-01-04T10:00:00Z,30.2791,-87.5561,1.182,26.52,1111122 
DISL,ioos:station:DISL:PPTA:1,2013-01-04T10:30:00Z,30.2791,-87.5561,1.182,25.88,1111122 
DISL,ioos:station:DISL:PPTA:1,2013-01-04T11:00:00Z,30.2791,-87.5561,1.161,27.23,1111122 
DISL,ioos:station:DISL:PPTA:1,2013-01-04T11:30:00Z,30.2791,-87.5561,1.173,26.42,1111122 
DISL,ioos:station:DISL:PPTA:1,2013-01-04T12:00:00Z,30.2791,-87.5561,1.159,26.4,1111122 
DISL,ioos:station:DISL:PPTA:1,2013-01-04T12:30:00Z,30.2791,-87.5561,1.17,25.36,1111122 
DISL,ioos:station:DISL:PPTA:1,2013-01-04T13:00:00Z,30.2791,-87.5561,1.19,25.59,1111122 
DISL,ioos:station:DISL:PPTA:1,2013-01-04T13:30:00Z,30.2791,-87.5561,1.179,26.15,1111122 
DISL,ioos:station:DISL:PPTA:1,2013-01-04T14:00:00Z,30.2791,-87.5561,1.143,24.83,1111122 
DISL,ioos:station:DISL:PPTA:1,2013-01-04T14:30:00Z,30.2791,-87.5561,1.193,25.02,1111122 
DISL,ioos:station:DISL:PPTA:1,2013-01-04T15:00:00Z,30.2791,-87.5561,1.226,24.21,1111122 
DISL,ioos:station:DISL:PPTA:1,2013-01-04T15:30:00Z,30.2791,-87.5561,1.185,24.55,1111122 
DISL,ioos:station:DISL:PPTA:1,2013-01-04T16:00:00Z,30.2791,-87.5561,1.188,25.53,1111122 
DISL,ioos:station:DISL:PPTA:1,2013-01-04T16:30:00Z,30.2791,-87.5561,1.17,27.04,1111122 
DISL,ioos:station:DISL:PPTA:1,2013-01-04T17:00:00Z,30.2791,-87.5561,1.208,27.02,1111122 
DISL,ioos:station:DISL:PPTA:1,2013-01-04T17:30:00Z,30.2791,-87.5561,1.179,31.27,1111122 
DISL,ioos:station:DISL:PPTA:1,2013-01-04T18:00:00Z,30.2791,-87.5561,1.149,29.32,1111122 
DISL,ioos:station:DISL:PPTA:1,2013-01-04T18:30:00Z,30.2791,-87.5561,1.137,31.97,1111122 
DISL,ioos:station:DISL:PPTA:1,2013-01-04T19:00:00Z,30.2791,-87.5561,1.127,32.28,1111122 
DISL,ioos:station:DISL:PPTA:1,2013-01-04T19:30:00Z,30.2791,-87.5561,1.11,32.7,1111122 
DISL,ioos:station:DISL:PPTA:1,2013-01-04T20:00:00Z,30.2791,-87.5561,1.107,33.28,1111122 
DISL,ioos:station:DISL:PPTA:1,2013-01-04T20:30:00Z,30.2791,-87.5561,1.083,33.12,1111122 
DISL,ioos:station:DISL:PPTA:1,2013-01-04T21:00:00Z,30.2791,-87.5561,1.111,32.49,1111122 
DISL,ioos:station:DISL:PPTA:1,2013-01-04T21:30:00Z,30.2791,-87.5561,1.091,33.44,1111122 
DISL,ioos:station:DISL:PPTA:1,2013-01-04T22:00:00Z,30.2791,-87.5561,1.093,33.26,1111122 
DISL,ioos:station:DISL:PPTA:1,2013-01-04T22:30:00Z,30.2791,-87.5561,1.126,33.53,1111122 
DISL,ioos:station:DISL:PPTA:1,2013-01-04T23:00:00Z,30.2791,-87.5561,1.104,33.51,1111122 
DISL,ioos:station:DISL:PPTA:1,2013-01-04T23:30:00Z,30.2791,-87.5561,1.092,33.43,1111122 
DISL,ioos:station:DISL:PPTA:1,2013-01-05T00:00:00Z,30.2791,-87.5561,1.087,33.57,1111122 
DISL,ioos:station:DISL:PPTA:1,2013-01-05T00:30:00Z,30.2791,-87.5561,1.079,33.52,1111122 
DISL,ioos:station:DISL:PPTA:1,2013-01-05T01:00:00Z,30.2791,-87.5561,1.053,33.59,1111122 
DISL,ioos:station:DISL:PPTA:1,2013-01-05T01:30:00Z,30.2791,-87.5561,1.086,29.66,1111122 
DISL,ioos:station:DISL:PPTA:1,2013-01-05T02:00:00Z,30.2791,-87.5561,1.061,30.69,1111122 
DISL,ioos:station:DISL:PPTA:1,2013-01-05T02:30:00Z,30.2791,-87.5561,1.043,29.0,1111122 
DISL,ioos:station:DISL:PPTA:1,2013-01-05T03:00:00Z,30.2791,-87.5561,1.071,29.92,1111122 
DISL,ioos:station:DISL:PPTA:1,2013-01-05T03:30:00Z,30.2791,-87.5561,1.052,31.82,1111122 
DISL,ioos:station:DISL:PPTA:1,2013-01-05T04:00:00Z,30.2791,-87.5561,1.02,32.2,1111122 
DISL,ioos:station:DISL:PPTA:1,2013-01-05T04:30:00Z,30.2791,-87.5561,1.01,31.75,1111122 
DISL,ioos:station:DISL:PPTA:1,2013-01-05T05:00:00Z,30.2791,-87.5561,1.006,31.96,1111122 
DISL,ioos:station:DISL:PPTA:1,2013-01-05T05:30:00Z,30.2791,-87.5561,1.01,31.3,1111122 
DISL,ioos:station:DISL:PPTA:1,2013-01-05T06:00:00Z,30.2791,-87.5561,1.004,30.65,1111122 
DISL,ioos:station:DISL:PPTA:1,2013-01-05T06:30:00Z,30.2791,-87.5561,1.015,29.35,1111122 
DISL,ioos:station:DISL:PPTA:1,2013-01-05T07:00:00Z,30.2791,-87.5561,1.0,28.96,1111122 
DISL,ioos:station:DISL:PPTA:1,2013-01-05T07:30:00Z,30.2791,-87.5561,0.986,28.15,1111122 
DISL,ioos:station:DISL:PPTA:1,2013-01-05T08:00:00Z,30.2791,-87.5561,0.976,27.59,1111122 
DISL,ioos:station:DISL:PPTA:1,2013-01-05T08:30:00Z,30.2791,-87.5561,0.981,27.63,1111122 
DISL,ioos:station:DISL:PPTA:1,2013-01-05T09:00:00Z,30.2791,-87.5561,0.99,26.5,1111122 
DISL,ioos:station:DISL:PPTA:1,2013-01-05T09:30:00Z,30.2791,-87.5561,0.979,26.55,1111122 
DISL,ioos:station:DISL:PPTA:1,2013-01-05T10:00:00Z,30.2791,-87.5561,0.941,27.06,1111122 
DISL,ioos:station:DISL:PPTA:1,2013-01-05T10:30:00Z,30.2791,-87.5561,0.961,26.02,1111122 
DISL,ioos:station:DISL:PPTA:1,2013-01-05T11:00:00Z,30.2791,-87.5561,0.953,25.57,1111122 
DISL,ioos:station:DISL:PPTA:1,2013-01-05T11:30:00Z,30.2791,-87.5561,0.963,25.6,1111122 
DISL,ioos:station:DISL:PPTA:1,2013-01-05T12:00:00Z,30.2791,-87.5561,0.985,25.04,1111122 
DISL,ioos:station:DISL:PPTA:1,2013-01-05T12:30:00Z,30.2791,-87.5561,0.981,24.93,1111122 
DISL,ioos:station:DISL:PPTA:1,2013-01-05T13:00:00Z,30.2791,-87.5561,0.974,24.33,1111122 
DISL,ioos:station:DISL:PPTA:1,2013-01-05T13:30:00Z,30.2791,-87.5561,0.981,24.18,1111122 
DISL,ioos:station:DISL:PPTA:1,2013-01-05T14:00:00Z,30.2791,-87.5561,0.976,27.05,1111122 
DISL,ioos:station:DISL:PPTA:1,2013-01-05T14:30:00Z,30.2791,-87.5561,0.982,23.16,1111122 
DISL,ioos:station:DISL:PPTA:1,2013-01-05T15:00:00Z,30.2791,-87.5561,1.018,23.1,1111122 
DISL,ioos:station:DISL:PPTA:1,2013-01-05T15:30:00Z,30.2791,-87.5561,0.999,22.77,1111122 
DISL,ioos:station:DISL:PPTA:1,2013-01-05T16:00:00Z,30.2791,-87.5561,1.015,28.17,1111122 
DISL,ioos:station:DISL:PPTA:1,2013-01-05T16:30:00Z,30.2791,-87.5561,1.007,28.89,1111122 
DISL,ioos:station:DISL:PPTA:1,2013-01-05T17:00:00Z,30.2791,-87.5561,1.0,31.58,1111122 
DISL,ioos:station:DISL:PPTA:1,2013-01-05T17:30:00Z,30.2791,-87.5561,1.039,32.15,1111122 
DISL,ioos:station:DISL:PPTA:1,2013-01-05T18:00:00Z,30.2791,-87.5561,1.054,33.09,1111122 
DISL,ioos:station:DISL:PPTA:1,2013-01-05T18:30:00Z,30.2791,-87.5561,1.071,33.31,1111122 
DISL,ioos:station:DISL:PPTA:1,2013-01-05T19:00:00Z,30.2791,-87.5561,1.08,33.15,1111122 
DISL,ioos:station:DISL:PPTA:1,2013-01-05T19:30:00Z,30.2791,-87.5561,1.099,33.57,1111122 
DISL,ioos:station:DISL:PPTA:1,2013-01-05T20:00:00Z,30.2791,-87.5561,1.118,33.32,1111122 
DISL,ioos:station:DISL:PPTA:1,2013-01-05T20:30:00Z,30.2791,-87.5561,1.102,33.64,1111122 
DISL,ioos:station:DISL:PPTA:1,2013-01-05T21:00:00Z,30.2791,-87.5561,1.103,33.41,1111122 
DISL,ioos:station:DISL:PPTA:1,2013-01-05T21:30:00Z,30.2791,-87.5561,1.13,33.44,1111122 
DISL,ioos:station:DISL:PPTA:1,2013-01-05T22:00:00Z,30.2791,-87.5561,1.115,33.48,1111122 
DISL,ioos:station:DISL:PPTA:1,2013-01-05T22:30:00Z,30.2791,-87.5561,1.147,32.92,1111122 
DISL,ioos:station:DISL:PPTA:1,2013-01-05T23:00:00Z,30.2791,-87.5561,1.146,33.46,1111122 
DISL,ioos:station:DISL:PPTA:1,2013-01-05T23:30:00Z,30.2791,-87.5561,3.961,29.52,1111122 
DISL,ioos:station:DISL:PPTA:1,2013-01-06T00:00:00Z,30.2791,-87.5561,3.936,29.57,1111122 
DISL,ioos:station:DISL:PPTA:1,2013-01-06T00:30:00Z,30.2791,-87.5561,3.903,29.6,1111122 
DISL,ioos:station:DISL:PPTA:1,2013-01-06T01:00:00Z,30.2791,-87.5561,1.086,33.48,1111122 
DISL,ioos:station:DISL:PPTA:1,2013-01-06T01:30:00Z,30.2791,-87.5561,3.887,29.59,1111122 
DISL,ioos:station:DISL:PPTA:1,2013-01-06T02:00:00Z,30.2791,-87.5561,1.098,30.96,1111122 
DISL,ioos:station:DISL:PPTA:1,2013-01-06T02:30:00Z,30.2791,-87.5561,1.112,31.51,1111122 
DISL,ioos:station:DISL:PPTA:1,2013-01-06T03:00:00Z,30.2791,-87.5561,1.079,31.64,1111122 
DISL,ioos:station:DISL:PPTA:1,2013-01-06T03:30:00Z,30.2791,-87.5561,1.085,31.57,1111122 
DISL,ioos:station:DISL:PPTA:1,2013-01-06T04:00:00Z,30.2791,-87.5561,1.105,31.79,1111122 
DISL,ioos:station:DISL:PPTA:1,2013-01-06T04:30:00Z,30.2791,-87.5561,1.055,31.62,1111122 
DISL,ioos:station:DISL:PPTA:1,2013-01-06T05:00:00Z,30.2791,-87.5561,1.058,32.27,1111122 
DISL,ioos:station:DISL:PPTA:1,2013-01-06T05:30:00Z,30.2791,-87.5561,1.027,31.29,1111122 
DISL,ioos:station:DISL:PPTA:1,2013-01-06T06:00:00Z,30.2791,-87.5561,1.043,31.22,1111122 
DISL,ioos:station:DISL:PPTA:1,2013-01-06T06:30:00Z,30.2791,-87.5561,1.039,31.44,1111122 
DISL,ioos:station:DISL:PPTA:1,2013-01-06T07:00:00Z,30.2791,-87.5561,0.964,29.85,1111122 
DISL,ioos:station:DISL:PPTA:1,2013-01-06T07:30:00Z,30.2791,-87.5561,1.026,27.51,1111122 
DISL,ioos:station:DISL:PPTA:1,2013-01-06T08:00:00Z,30.2791,-87.5561,1.022,27.82,1111122 
DISL,ioos:station:DISL:PPTA:1,2013-01-06T08:30:00Z,30.2791,-87.5561,1.007,27.93,1111122 
DISL,ioos:station:DISL:PPTA:1,2013-01-06T09:00:00Z,30.2791,-87.5561,0.974,27.61,1111122 
DISL,ioos:station:DISL:PPTA:1,2013-01-06T09:30:00Z,30.2791,-87.5561,0.936,27.0,1111122 
DISL,ioos:station:DISL:PPTA:1,2013-01-06T10:00:00Z,30.2791,-87.5561,0.972,26.05,1111122 
DISL,ioos:station:DISL:PPTA:1,2013-01-06T10:30:00Z,30.2791,-87.5561,3.656,29.55,1111122 
DISL,ioos:station:DISL:PPTA:1,2013-01-06T11:00:00Z,30.2791,-87.5561,0.948,25.43,1111122 
DISL,ioos:station:DISL:PPTA:1,2013-01-06T11:30:00Z,30.2791,-87.5561,1.018,24.01,1111122 
DISL,ioos:station:DISL:PPTA:1,2013-01-06T12:00:00Z,30.2791,-87.5561,1.012,26.15,1111122 
DISL,ioos:station:DISL:PPTA:1,2013-01-06T12:30:00Z,30.2791,-87.5561,0.965,27.37,1111122 
DISL,ioos:station:DISL:PPTA:1,2013-01-06T13:00:00Z,30.2791,-87.5561,1.019,25.89,1111122 
DISL,ioos:station:DISL:PPTA:1,2013-01-06T13:30:00Z,30.2791,-87.5561,1.009,23.26,1111122 
DISL,ioos:station:DISL:PPTA:1,2013-01-06T14:00:00Z,30.2791,-87.5561,1.022,23.05,1111122 